Search the data

BODC Cruise Metadata Report for Prince Madog (74PD) cruise PM4DW13

Introduction

This report collates information from the BODC cruise inventory and oceanographic databases. It presents

Cruise Inventory Information

Long name Prince Madog (74PD) cruise PM4DW13
Short name PM4DW13
Objectives and Narrative Liverpool Bay Front Survey.
Ship Prince Madog
Departure Port Menai Bridge, United Kingdom
Departure Date 1978-07-31
Arrival Port Menai Bridge, United Kingdom
Arrival Date 1978-08-03
Principal Scientist(s) Steven P R Czitrom Baus (University of Wales, Bangor School of Ocean Sciences)
Responsible Organisation University of Wales, Bangor School of Ocean Sciences
Associated Project(s)
IHB Sea Areas Visited Irish Sea and St. George's Channel
Marsden Squares Visited 181;133/181;134
Work Area Description
Work Area Bounding Polygon 53N,5W; 54N,5W; 54N,3W; 53N,3W; 53N,5W
Southern Limit 53N
Northern Limit 54N
Western Limit 5W
Eastern Limit 3W

Cruise Inventory Datasets

Physical oceanography  
CTD stations Quantity: number of stations = 73
Description:  

Cruise Inventory Mooring/Buoy Operations

No information on datasets is currently available

Summary of BODC Data Holdings for the Cruise

National Oceanographic Database

Summary

# Series Instrument Description Parameters
73 CTD/STD cast Salinity of the water column
Temperature of the water column
Vertical spatial coordinates

Note: Parameter terms are taken from the BODC Parameter Discovery Vocabulary XML (SKOS)

Full List

BODC Reference Instrument Description Date/Time Location  
65289 CTD/STD cast 1978-07-31 15:28Z 53° 40' N, 3° 19' W Click for more
65290 CTD/STD cast 1978-07-31 17:12Z 53° 41' N, 3° 26' W Click for more
65308 CTD/STD cast 1978-07-31 17:55Z 53° 41' N, 3° 33' W Click for more
65321 CTD/STD cast 1978-07-31 19:35Z 53° 40' N, 3° 40' W Click for more
65333 CTD/STD cast 1978-07-31 20:18Z 53° 40' N, 3° 46' W Click for more
65345 CTD/STD cast 1978-07-31 21:53Z 53° 41' N, 3° 54' W Click for more
65357 CTD/STD cast 1978-07-31 22:34Z 53° 41' N, 4° 0' W Click for more
65369 CTD/STD cast 1978-08-01 00:07Z 53° 40' N, 4° 6' W Click for more
65370 CTD/STD cast 1978-08-01 00:53Z 53° 41' N, 4° 13' W Click for more
65382 CTD/STD cast 1978-08-01 02:22Z 53° 40' N, 4° 20' W Click for more
65394 CTD/STD cast 1978-08-01 03:10Z 53° 40' N, 4° 28' W Click for more
65401 CTD/STD cast 1978-08-01 05:40Z 53° 32' N, 4° 14' W Click for more
65413 CTD/STD cast 1978-08-01 06:20Z 53° 33' N, 4° 6' W Click for more
65425 CTD/STD cast 1978-08-01 07:00Z 53° 33' N, 3° 59' W Click for more
65437 CTD/STD cast 1978-08-01 07:38Z 53° 32' N, 3° 53' W Click for more
65449 CTD/STD cast 1978-08-01 08:18Z 53° 33' N, 3° 46' W Click for more
65450 CTD/STD cast 1978-08-01 09:02Z 53° 33' N, 3° 39' W Click for more
65462 CTD/STD cast 1978-08-01 09:44Z 53° 33' N, 3° 33' W Click for more
65474 CTD/STD cast 1978-08-01 10:26Z 53° 33' N, 3° 26' W Click for more
65486 CTD/STD cast 1978-08-01 11:55Z 53° 41' N, 3° 19' W Click for more
65498 CTD/STD cast 1978-08-01 13:03Z 53° 48' N, 3° 19' W Click for more
65505 CTD/STD cast 1978-08-01 13:40Z 53° 49' N, 3° 26' W Click for more
65517 CTD/STD cast 1978-08-01 14:10Z 53° 48' N, 3° 33' W Click for more
65529 CTD/STD cast 1978-08-01 15:00Z 53° 49' N, 3° 40' W Click for more
65530 CTD/STD cast 1978-08-01 15:50Z 53° 49' N, 3° 46' W Click for more
65542 CTD/STD cast 1978-08-01 16:42Z 53° 49' N, 3° 54' W Click for more
65554 CTD/STD cast 1978-08-01 17:23Z 53° 49' N, 4° 0' W Click for more
65566 CTD/STD cast 1978-08-01 18:12Z 53° 49' N, 4° 7' W Click for more
65578 CTD/STD cast 1978-08-01 19:00Z 53° 49' N, 4° 14' W Click for more
65591 CTD/STD cast 1978-08-01 20:08Z 53° 49' N, 4° 21' W Click for more
65609 CTD/STD cast 1978-08-01 21:04Z 53° 49' N, 4° 27' W Click for more
65610 CTD/STD cast 1978-08-01 22:02Z 53° 54' N, 4° 26' W Click for more
65622 CTD/STD cast 1978-08-01 22:52Z 53° 57' N, 4° 27' W Click for more
65634 CTD/STD cast 1978-08-01 23:45Z 54° 0' N, 4° 27' W Click for more
65646 CTD/STD cast 1978-08-02 00:38Z 54° 4' N, 4° 26' W Click for more
65658 CTD/STD cast 1978-08-02 01:53Z 54° 4' N, 4° 21' W Click for more
65671 CTD/STD cast 1978-08-02 02:42Z 54° 4' N, 4° 14' W Click for more
65683 CTD/STD cast 1978-08-02 03:55Z 54° 4' N, 4° 6' W Click for more
65695 CTD/STD cast 1978-08-02 04:45Z 54° 4' N, 3° 59' W Click for more
65702 CTD/STD cast 1978-08-02 05:40Z 54° 4' N, 3° 53' W Click for more
65714 CTD/STD cast 1978-08-02 06:21Z 54° 4' N, 3° 46' W Click for more
65726 CTD/STD cast 1978-08-02 07:00Z 54° 4' N, 3° 40' W Click for more
65738 CTD/STD cast 1978-08-02 07:42Z 54° 4' N, 3° 33' W Click for more
65751 CTD/STD cast 1978-08-02 08:22Z 54° 4' N, 3° 27' W Click for more
65763 CTD/STD cast 1978-08-02 09:00Z 54° 4' N, 3° 20' W Click for more
65775 CTD/STD cast 1978-08-02 09:55Z 54° 0' N, 3° 19' W Click for more
65787 CTD/STD cast 1978-08-02 10:27Z 53° 57' N, 3° 19' W Click for more
65799 CTD/STD cast 1978-08-02 11:33Z 53° 57' N, 3° 27' W Click for more
65806 CTD/STD cast 1978-08-02 12:09Z 53° 57' N, 3° 33' W Click for more
65818 CTD/STD cast 1978-08-02 13:18Z 53° 57' N, 3° 40' W Click for more
65831 CTD/STD cast 1978-08-02 13:50Z 53° 57' N, 3° 46' W Click for more
65843 CTD/STD cast 1978-08-02 15:18Z 53° 57' N, 3° 54' W Click for more
65855 CTD/STD cast 1978-08-02 15:52Z 53° 57' N, 4° 0' W Click for more
65867 CTD/STD cast 1978-08-02 17:20Z 53° 57' N, 4° 7' W Click for more
65879 CTD/STD cast 1978-08-02 18:02Z 53° 57' N, 4° 13' W Click for more
65880 CTD/STD cast 1978-08-02 19:38Z 53° 57' N, 4° 21' W Click for more
65892 CTD/STD cast 1978-08-02 20:25Z 53° 57' N, 4° 27' W Click for more
65911 CTD/STD cast 1978-08-02 22:15Z 53° 53' N, 4° 26' W Click for more
65923 CTD/STD cast 1978-08-02 23:03Z 53° 49' N, 4° 26' W Click for more
65935 CTD/STD cast 1978-08-02 23:58Z 53° 48' N, 4° 21' W Click for more
65947 CTD/STD cast 1978-08-03 00:55Z 53° 49' N, 4° 13' W Click for more
65959 CTD/STD cast 1978-08-03 01:52Z 53° 49' N, 4° 7' W Click for more
65960 CTD/STD cast 1978-08-03 02:50Z 53° 48' N, 4° 0' W Click for more
65972 CTD/STD cast 1978-08-03 03:48Z 53° 48' N, 3° 53' W Click for more
65984 CTD/STD cast 1978-08-03 04:36Z 53° 49' N, 3° 47' W Click for more
65996 CTD/STD cast 1978-08-03 05:26Z 53° 49' N, 3° 40' W Click for more
66011 CTD/STD cast 1978-08-03 06:05Z 53° 48' N, 3° 33' W Click for more
66023 CTD/STD cast 1978-08-03 06:48Z 53° 48' N, 3° 26' W Click for more
66035 CTD/STD cast 1978-08-03 07:25Z 53° 49' N, 3° 19' W Click for more
66047 CTD/STD cast 1978-08-03 08:20Z 53° 49' N, 3° 26' W Click for more
66059 CTD/STD cast 1978-08-03 09:06Z 53° 48' N, 3° 33' W Click for more
66060 CTD/STD cast 1978-08-03 09:47Z 53° 49' N, 3° 39' W Click for more
66072 CTD/STD cast 1978-08-03 11:00Z 53° 41' N, 3° 39' W Click for more

Project Database

No data currently held for this cruise in the BODC Project Database

References

Track Charts

Track Chart

Reports

No reports currently available